contact:dominique.lefevre@mio.osupytheas.fr, maurice.libes@osupytheas.fr, didier.mallarino@osupytheas.fr
Project:EMSO http://www.emso-fr.org/EMSO-France
Depth: 2436.0 m
Title:EMSO Ligure Ouest : Data MII capteur AQUADOPP
Date,Latitude,Longitude,X_East,Y_North,Z_Up,Amplitude_X,Amplitude_Y,Amplitude_Z,Batterie,SoundSpeed,Heading,Pitch,Roll,Pressure,TIS,Speed,Direction
, degrees North, degrees East, m.s-1, m.s-1,m.s-1, 1, 1, 1, Volt, m.s-1, degree, degree, degree, dbar, degree_C, m.s-1, degree
2022-08-03T00:04:03,42.805,6.029,-0.048,-0.001,-0.03,101.0,101.0,101.0,13.3,1505.2,330.3,-0.8,1.8,2470.954,13.28,0.048,268.8
2022-08-03T00:07:03,42.805,6.029,-0.043,-0.009,-0.01,102.0,102.0,100.0,13.3,1505.2,321.5,-0.8,1.8,2470.957,13.28,0.043,258.2
2022-08-03T00:10:03,42.805,6.029,-0.039,0.014,-0.006,103.0,102.0,100.0,13.4,1505.2,325.0,-0.7,1.8,2470.946,13.28,0.041,289.7
2022-08-03T00:13:03,42.805,6.029,-0.058,-0.019,-0.048,102.0,102.0,101.0,13.4,1505.2,327.4,-0.7,1.8,2470.941,13.28,0.061,251.9
2022-08-03T00:16:03,42.805,6.029,-0.064,-0.003,-0.051,102.0,101.0,100.0,13.4,1505.2,320.8,-0.7,1.8,2470.935,13.28,0.064,267.3
2022-08-03T00:19:03,42.805,6.029,-0.041,0.009,-0.005,102.0,100.0,100.0,13.4,1505.2,323.2,-0.7,1.8,2470.933,13.28,0.041,282.4
2022-08-03T00:22:03,42.805,6.029,-0.042,-0.022,-0.043,103.0,100.0,100.0,13.3,1505.2,328.2,-0.7,1.8,2470.913,13.28,0.047,242.4
2022-08-03T00:25:03,42.805,6.029,-0.045,-0.004,-0.04,102.0,102.0,101.0,13.3,1505.2,323.2,-0.7,1.8,2470.938,13.28,0.045,264.9
2022-08-03T00:28:03,42.805,6.029,-0.043,-0.018,-0.037,103.0,102.0,100.0,13.3,1505.2,319.5,-0.8,1.8,2470.912,13.28,0.046,247.3
2022-08-03T00:31:03,42.805,6.029,-0.024,-0.006,-0.018,102.0,103.0,101.0,13.4,1505.2,333.1,-0.7,1.8,2470.899,13.28,0.024,256.0
2022-08-03T00:34:03,42.805,6.029,-0.048,-0.014,-0.026,101.0,101.0,102.0,13.3,1505.2,323.5,-0.8,1.8,2470.915,13.28,0.05,253.7
2022-08-03T00:37:03,42.805,6.029,-0.068,0.014,-0.011,103.0,102.0,101.0,13.3,1505.2,333.9,-0.7,1.9,2470.903,13.28,0.069,281.6
2022-08-03T00:40:03,42.805,6.029,-0.053,-0.002,-0.036,103.0,100.0,102.0,13.4,1505.2,329.5,-0.8,1.8,2470.891,13.28,0.053,267.8
2022-08-03T00:43:03,42.805,6.029,-0.036,0.005,-0.039,102.0,103.0,101.0,13.3,1505.2,322.2,-0.7,1.8,2470.869,13.28,0.036,277.9
2022-08-03T00:46:03,42.805,6.029,-0.05,0.007,-0.029,101.0,103.0,101.0,13.4,1505.2,327.9,-0.8,1.8,2470.939,13.28,0.05,278.0
2022-08-03T00:49:03,42.805,6.029,-0.06,0.011,-0.004,102.0,103.0,100.0,13.4,1505.2,318.5,-0.7,1.8,2470.876,13.29,0.06,280.4
2022-08-03T00:52:03,42.805,6.029,-0.039,0.0,-0.025,102.0,101.0,101.0,13.4,1505.2,326.3,-0.8,1.9,2470.932,13.28,0.039,270.0
2022-08-03T00:55:03,42.805,6.029,-0.052,-0.001,-0.021,103.0,103.0,100.0,13.4,1505.2,326.4,-0.7,1.8,2470.907,13.28,0.052,268.9
2022-08-03T00:58:03,42.805,6.029,-0.064,-0.013,-0.046,102.0,102.0,100.0,13.4,1505.2,321.7,-0.8,1.8,2470.908,13.28,0.065,258.5
2022-08-03T01:04:03,42.805,6.029,-0.036,-0.034,-0.041,104.0,104.0,103.0,13.4,1505.2,319.1,-0.8,1.8,2470.919,13.28,0.049,226.6
2022-08-03T01:07:03,42.805,6.029,-0.027,0.0,-0.011,102.0,101.0,100.0,13.4,1505.2,319.9,-0.8,1.8,2470.944,13.28,0.026,270.0
2022-08-03T01:10:03,42.805,6.029,-0.044,0.007,-0.014,104.0,101.0,100.0,13.4,1505.2,328.5,-0.8,1.8,2470.877,13.28,0.044,279.0
2022-08-03T01:13:03,42.805,6.029,-0.057,0.013,0.001,102.0,103.0,100.0,13.4,1505.2,321.6,-0.8,1.8,2470.939,13.28,0.058,282.8
2022-08-03T01:16:03,42.805,6.029,-0.062,0.008,-0.033,102.0,103.0,100.0,13.4,1505.2,330.0,-0.8,1.8,2470.955,13.28,0.062,277.3
2022-08-03T01:19:03,42.805,6.029,-0.056,-0.005,-0.051,102.0,102.0,101.0,13.4,1505.2,325.0,-0.8,1.8,2470.897,13.28,0.056,264.9
2022-08-03T01:22:03,42.805,6.029,-0.051,-0.007,-0.055,102.0,101.0,101.0,13.4,1505.2,328.0,-0.8,1.8,2470.863,13.28,0.051,262.2
2022-08-03T01:25:03,42.805,6.029,-0.044,-0.009,-0.016,101.0,102.0,101.0,13.4,1505.2,319.5,-0.8,1.8,2470.892,13.28,0.044,258.4
2022-08-03T01:28:03,42.805,6.029,-0.061,0.009,-0.024,102.0,101.0,101.0,13.3,1505.2,331.1,-0.8,1.8,2470.874,13.28,0.061,278.4
2022-08-03T01:31:03,42.805,6.029,-0.047,-0.024,-0.028,102.0,101.0,101.0,13.4,1505.2,328.1,-0.7,1.8,2470.892,13.28,0.052,243.0
2022-08-03T01:34:03,42.805,6.029,-0.024,0.0,-0.015,101.0,102.0,101.0,13.4,1505.2,332.3,-0.8,1.8,2470.883,13.28,0.024,270.0
2022-08-03T01:37:03,42.805,6.029,-0.032,-0.006,-0.054,103.0,100.0,102.0,13.4,1505.2,320.0,-0.8,1.8,2470.895,13.28,0.032,259.4
2022-08-03T01:40:03,42.805,6.029,-0.048,-0.001,-0.013,102.0,102.0,101.0,13.3,1505.2,328.9,-0.8,1.8,2470.86,13.28,0.048,268.8
2022-08-03T01:43:03,42.805,6.029,-0.036,-0.018,-0.068,102.0,102.0,100.0,13.3,1505.2,321.9,-0.8,1.8,2470.879,13.28,0.04,243.4
2022-08-03T01:46:03,42.805,6.029,-0.03,-0.006,-0.05,103.0,102.0,101.0,13.4,1505.2,324.1,-0.7,1.8,2470.872,13.28,0.03,258.7
2022-08-03T01:49:03,42.805,6.029,-0.026,-0.017,-0.01,101.0,101.0,101.0,13.4,1505.2,322.4,-0.7,1.8,2470.888,13.28,0.031,236.8
2022-08-03T01:52:03,42.805,6.029,-0.04,-0.006,0.015,102.0,102.0,100.0,13.4,1505.2,327.9,-0.8,1.8,2470.884,13.28,0.04,261.5
2022-08-03T01:55:03,42.805,6.029,-0.051,-0.022,-0.036,101.0,102.0,100.0,13.4,1505.2,320.2,-0.8,1.8,2470.895,13.28,0.055,246.7
2022-08-03T01:58:03,42.805,6.029,-0.043,0.009,-0.001,101.0,101.0,102.0,13.4,1505.2,331.8,-0.8,1.8,2470.868,13.28,0.043,281.8
2022-08-03T02:04:03,42.805,6.029,-0.03,0.009,-0.019,102.0,102.0,101.0,13.3,1505.2,327.6,-0.8,1.8,2470.909,13.28,0.031,286.7
2022-08-03T02:07:03,42.805,6.029,-0.024,0.009,-0.016,102.0,103.0,100.0,13.4,1505.2,321.2,-0.8,1.8,2470.887,13.28,0.025,290.6
2022-08-03T02:10:03,42.805,6.029,-0.044,0.001,-0.032,101.0,102.0,101.0,13.4,1505.2,320.0,-0.8,1.9,2470.867,13.28,0.044,271.3
2022-08-03T02:13:03,42.805,6.029,-0.076,-0.025,-0.045,101.0,103.0,101.0,13.4,1505.2,322.0,-0.8,1.8,2470.9,13.28,0.08,251.8
2022-08-03T02:16:03,42.805,6.029,-0.058,0.001,-0.035,102.0,103.0,99.0,13.4,1505.2,327.9,-0.8,1.8,2470.874,13.28,0.058,271.0
2022-08-03T02:19:03,42.805,6.029,-0.038,-0.02,-0.042,102.0,100.0,101.0,13.3,1505.2,326.4,-0.8,1.8,2470.86,13.28,0.042,242.2
2022-08-03T02:22:03,42.805,6.029,-0.057,0.011,-0.022,102.0,100.0,100.0,13.3,1505.2,326.3,-0.8,1.8,2470.824,13.28,0.058,280.9
2022-08-03T02:25:03,42.805,6.029,-0.024,-0.016,-0.073,102.0,101.0,101.0,13.4,1505.2,326.7,-0.7,1.8,2470.848,13.28,0.028,236.3
2022-08-03T02:28:03,42.805,6.029,-0.03,0.003,-0.023,102.0,102.0,102.0,13.4,1505.2,320.1,-0.7,1.8,2470.861,13.28,0.03,275.7
2022-08-03T02:31:03,42.805,6.029,-0.067,-0.016,-0.057,101.0,101.0,101.0,13.4,1505.2,324.4,-0.7,1.8,2470.802,13.28,0.068,256.6
2022-08-03T02:34:03,42.805,6.029,-0.024,0.005,-0.021,104.0,99.0,101.0,13.4,1505.2,323.8,-0.8,1.8,2470.834,13.28,0.024,281.8
2022-08-03T02:37:03,42.805,6.029,-0.046,-0.01,-0.033,101.0,101.0,101.0,13.4,1505.2,327.7,-0.8,1.8,2470.838,13.28,0.047,257.7
2022-08-03T02:40:03,42.805,6.029,-0.044,-0.01,-0.054,101.0,103.0,100.0,13.4,1505.2,321.4,-0.8,1.8,2470.84,13.28,0.045,257.2
2022-08-03T02:43:03,42.805,6.029,-0.035,-0.009,-0.041,102.0,101.0,101.0,13.3,1505.2,320.1,-0.8,1.8,2470.834,13.28,0.036,255.6
2022-08-03T02:46:03,42.805,6.029,-0.054,-0.006,-0.025,102.0,100.0,101.0,13.4,1505.2,331.3,-0.7,1.8,2470.798,13.28,0.054,263.7
2022-08-03T02:49:03,42.805,6.029,-0.028,-0.016,-0.024,103.0,101.0,102.0,13.4,1505.2,320.2,-0.7,1.8,2470.8,13.28,0.032,240.3
2022-08-03T02:52:03,42.805,6.029,-0.075,0.013,-0.023,103.0,100.0,101.0,13.3,1505.2,326.1,-0.8,1.8,2470.821,13.28,0.076,279.8
2022-08-03T02:55:03,42.805,6.029,-0.046,0.019,-0.029,102.0,101.0,101.0,13.4,1505.2,333.9,-0.8,1.8,2470.767,13.28,0.049,292.4
2022-08-03T02:58:03,42.805,6.029,-0.046,-0.012,-0.034,100.0,100.0,102.0,13.3,1505.2,318.5,-0.8,1.8,2470.8,13.28,0.047,255.4
2022-08-03T03:04:03,42.805,6.029,-0.026,0.001,-0.039,103.0,100.0,100.0,13.3,1505.2,327.8,-0.8,1.8,2470.863,13.28,0.026,272.2
2022-08-03T03:07:03,42.805,6.029,-0.058,-0.013,-0.019,102.0,102.0,101.0,13.4,1505.2,319.4,-0.7,1.8,2470.86,13.28,0.059,257.4
2022-08-03T03:10:03,42.805,6.029,-0.054,0.001,-0.009,101.0,101.0,101.0,13.3,1505.2,321.3,-0.8,1.8,2470.828,13.28,0.054,271.1
2022-08-03T03:13:03,42.805,6.029,-0.063,-0.003,-0.024,102.0,102.0,100.0,13.3,1505.2,324.4,-0.8,1.8,2470.857,13.28,0.063,267.3
2022-08-03T03:16:03,42.805,6.029,-0.042,0.001,-0.05,102.0,102.0,101.0,13.4,1505.2,328.8,-0.8,1.8,2470.851,13.28,0.042,271.4
2022-08-03T03:19:03,42.805,6.029,0.004,-0.021,-0.041,102.0,103.0,100.0,13.4,1505.2,328.6,-0.7,1.8,2470.838,13.28,0.021,169.2
2022-08-03T03:22:03,42.805,6.029,-0.06,0.014,-0.013,103.0,102.0,100.0,13.4,1505.2,329.6,-0.8,1.8,2470.853,13.28,0.061,283.1
2022-08-03T03:25:03,42.805,6.029,-0.037,0.006,-0.032,103.0,103.0,102.0,13.4,1505.2,331.9,-0.7,1.8,2470.803,13.28,0.037,279.2
2022-08-03T03:28:03,42.805,6.029,-0.032,-0.001,-0.018,101.0,103.0,101.0,13.4,1505.2,324.1,-0.8,1.8,2470.829,13.28,0.032,268.2
2022-08-03T03:31:03,42.805,6.029,-0.026,0.013,-0.024,102.0,103.0,99.0,13.4,1505.2,323.4,-0.7,1.8,2470.875,13.28,0.029,296.6
2022-08-03T03:34:03,42.805,6.029,-0.049,0.016,-0.023,102.0,101.0,101.0,13.4,1505.2,330.1,-0.8,1.8,2470.802,13.28,0.051,288.1
2022-08-03T03:37:03,42.805,6.029,-0.034,-0.005,-0.008,102.0,102.0,101.0,13.3,1505.2,328.0,-0.7,1.8,2470.847,13.28,0.034,261.6
2022-08-03T03:40:03,42.805,6.029,-0.056,-0.003,-0.034,104.0,102.0,100.0,13.4,1505.2,322.8,-0.7,1.8,2470.804,13.28,0.056,266.9
2022-08-03T03:43:03,42.805,6.029,-0.012,0.002,-0.015,101.0,103.0,101.0,13.4,1505.2,330.0,-0.8,1.8,2470.868,13.28,0.012,279.5
2022-08-03T03:46:03,42.805,6.029,-0.04,-0.016,-0.038,102.0,102.0,101.0,13.3,1505.2,325.7,-0.8,1.8,2470.814,13.28,0.043,248.2
2022-08-03T03:49:03,42.805,6.029,-0.067,-0.007,-0.043,102.0,103.0,101.0,13.3,1505.2,330.1,-0.7,1.8,2470.809,13.29,0.067,264.0
2022-08-03T03:52:03,42.805,6.029,-0.035,0.012,-0.007,102.0,101.0,101.0,13.4,1505.2,330.1,-0.8,1.8,2470.826,13.28,0.037,288.9
2022-08-03T03:55:03,42.805,6.029,-0.047,-0.004,-0.055,102.0,101.0,101.0,13.3,1505.2,320.2,-0.8,1.8,2470.805,13.28,0.047,265.1
2022-08-03T03:58:03,42.805,6.029,-0.055,0.004,-0.034,102.0,101.0,101.0,13.4,1505.2,325.7,-0.8,1.8,2470.821,13.28,0.055,274.2
2022-08-03T04:04:03,42.805,6.029,-0.046,0.01,-0.02,102.0,102.0,100.0,13.3,1505.2,319.9,-0.8,1.8,2470.837,13.28,0.047,282.3
2022-08-03T04:07:03,42.805,6.029,-0.045,-0.013,-0.022,101.0,101.0,100.0,13.4,1505.2,319.7,-0.8,1.8,2470.856,13.28,0.046,253.9
2022-08-03T04:10:03,42.805,6.029,-0.043,0.001,-0.072,102.0,100.0,102.0,13.4,1505.2,334.2,-0.7,1.8,2470.826,13.28,0.043,271.3
2022-08-03T04:13:03,42.805,6.029,-0.047,0.002,0.013,102.0,102.0,100.0,13.4,1505.2,323.9,-0.7,1.8,2470.828,13.28,0.047,272.4
2022-08-03T04:16:03,42.805,6.029,-0.042,0.019,-0.05,102.0,101.0,100.0,13.4,1505.2,333.1,-0.7,1.8,2470.803,13.28,0.046,294.3
2022-08-03T04:19:03,42.805,6.029,-0.058,0.0,-0.038,102.0,101.0,100.0,13.4,1505.2,324.1,-0.7,1.8,2470.83,13.28,0.057,270.0
2022-08-03T04:22:03,42.805,6.029,-0.059,-0.005,-0.054,101.0,102.0,101.0,13.4,1505.2,323.2,-0.8,1.8,2470.785,13.28,0.059,265.2
2022-08-03T04:25:03,42.805,6.029,-0.037,0.014,-0.012,102.0,102.0,100.0,13.4,1505.2,319.8,-0.8,1.8,2470.759,13.28,0.039,290.7
2022-08-03T04:28:03,42.805,6.029,-0.048,0.005,-0.023,101.0,102.0,101.0,13.4,1505.2,326.3,-0.8,1.8,2470.803,13.28,0.048,275.9
2022-08-03T04:31:03,42.805,6.029,-0.046,0.004,-0.045,102.0,102.0,101.0,13.4,1505.2,323.3,-0.8,1.8,2470.82,13.28,0.046,275.0
2022-08-03T04:34:03,42.805,6.029,-0.048,0.015,-0.029,102.0,102.0,101.0,13.4,1505.2,324.9,-0.7,1.8,2470.824,13.29,0.05,287.4
2022-08-03T04:37:03,42.805,6.029,-0.029,0.007,-0.04,102.0,101.0,100.0,13.3,1505.2,326.3,-0.7,1.8,2470.87,13.28,0.029,283.6
2022-08-03T04:40:03,42.805,6.029,-0.021,0.02,-0.033,103.0,100.0,101.0,13.4,1505.2,327.6,-0.8,1.8,2470.874,13.29,0.028,313.6
2022-08-03T04:43:03,42.805,6.029,-0.04,0.004,-0.003,102.0,101.0,100.0,13.3,1505.2,326.7,-0.8,1.8,2470.831,13.28,0.04,275.7
2022-08-03T04:46:03,42.805,6.029,-0.077,0.03,-0.029,101.0,102.0,100.0,13.4,1505.2,328.5,-0.8,1.8,2470.897,13.29,0.082,291.3
2022-08-03T04:49:03,42.805,6.029,-0.048,-0.016,-0.035,102.0,103.0,100.0,13.4,1505.2,320.2,-0.7,1.8,2470.881,13.28,0.05,251.6
2022-08-03T04:52:03,42.805,6.029,-0.058,0.003,-0.038,102.0,102.0,100.0,13.3,1505.2,324.7,-0.8,1.8,2470.862,13.28,0.058,273.0
2022-08-03T04:55:03,42.805,6.029,-0.028,-0.005,-0.027,102.0,101.0,101.0,13.3,1505.2,324.9,-0.8,1.8,2470.894,13.28,0.028,259.9
2022-08-03T04:58:03,42.805,6.029,-0.033,0.016,-0.003,103.0,101.0,100.0,13.4,1505.2,326.0,-0.8,1.8,2470.889,13.29,0.036,295.9
2022-08-03T05:04:03,42.805,6.029,-0.031,0.009,-0.013,101.0,102.0,101.0,13.3,1505.2,327.8,-0.8,1.8,2470.937,13.28,0.032,286.2
2022-08-03T05:07:03,42.805,6.029,-0.049,0.014,-0.013,103.0,102.0,100.0,13.4,1505.2,334.4,-0.8,1.8,2470.949,13.28,0.05,285.9
2022-08-03T05:10:03,42.805,6.029,-0.02,0.001,-0.021,102.0,101.0,101.0,13.4,1505.2,333.1,-0.7,1.8,2470.912,13.28,0.02,272.9
2022-08-03T05:13:03,42.805,6.029,-0.049,-0.008,-0.05,102.0,101.0,101.0,13.4,1505.2,331.5,-0.8,1.8,2470.915,13.28,0.049,260.7
2022-08-03T05:16:03,42.805,6.029,-0.042,0.002,-0.027,103.0,100.0,101.0,13.4,1505.2,332.4,-0.8,1.8,2470.911,13.28,0.042,272.7
2022-08-03T05:19:03,42.805,6.029,-0.02,-0.003,-0.005,102.0,102.0,100.0,13.3,1505.2,321.4,-0.7,1.8,2470.892,13.28,0.02,261.5
2022-08-03T05:22:03,42.805,6.029,-0.041,-0.015,-0.03,100.0,102.0,101.0,13.4,1505.2,325.1,-0.8,1.8,2470.94,13.28,0.043,249.9
2022-08-03T05:25:03,42.805,6.029,-0.052,0.022,-0.03,103.0,102.0,100.0,13.3,1505.2,326.9,-0.7,1.8,2470.885,13.28,0.056,292.9
2022-08-03T05:28:03,42.805,6.029,-0.044,-0.006,-0.026,102.0,101.0,100.0,13.4,1505.2,321.8,-0.8,1.8,2470.893,13.28,0.044,262.2
2022-08-03T05:31:03,42.805,6.029,-0.038,-0.018,-0.028,103.0,103.0,100.0,13.4,1505.2,326.9,-0.7,1.8,2470.874,13.28,0.042,244.7
2022-08-03T05:34:03,42.805,6.029,-0.038,-0.003,-0.031,103.0,101.0,101.0,13.4,1505.2,326.1,-0.8,1.8,2470.903,13.28,0.038,265.5
2022-08-03T05:37:03,42.805,6.029,-0.053,0.02,-0.038,102.0,103.0,100.0,13.3,1505.2,333.9,-0.8,1.8,2470.936,13.28,0.056,290.7
2022-08-03T05:40:03,42.805,6.029,-0.013,-0.014,-0.022,101.0,102.0,100.0,13.4,1505.2,325.5,-0.8,1.8,2470.952,13.28,0.019,222.9
2022-08-03T05:43:03,42.805,6.029,-0.056,-0.025,-0.042,100.0,102.0,102.0,13.3,1505.2,318.5,-0.7,1.8,2470.928,13.29,0.061,245.9
2022-08-03T05:46:03,42.805,6.029,-0.045,-0.006,-0.028,102.0,101.0,100.0,13.3,1505.2,318.5,-0.8,1.8,2470.874,13.28,0.045,262.4
2022-08-03T05:49:03,42.805,6.029,-0.058,-0.003,-0.036,103.0,99.0,100.0,13.4,1505.2,323.1,-0.7,1.8,2470.92,13.28,0.058,267.0
2022-08-03T05:52:03,42.805,6.029,-0.061,-0.012,-0.041,101.0,101.0,101.0,13.3,1505.2,326.4,-0.8,1.9,2470.924,13.28,0.062,258.9
2022-08-03T05:55:03,42.805,6.029,-0.077,-0.009,-0.051,102.0,102.0,102.0,13.3,1505.2,323.1,-0.8,1.8,2470.911,13.28,0.077,263.3
2022-08-03T05:58:03,42.805,6.029,-0.056,-0.005,-0.01,101.0,102.0,101.0,13.3,1505.2,320.1,-0.8,1.8,2470.874,13.28,0.056,264.9
2022-08-03T06:04:03,42.805,6.029,-0.039,0.01,-0.029,102.0,102.0,100.0,13.4,1505.2,326.1,-0.8,1.8,2470.93,13.28,0.04,284.4
2022-08-03T06:07:03,42.805,6.029,-0.044,0.023,-0.006,103.0,99.0,101.0,13.4,1505.2,323.1,-0.7,1.8,2470.948,13.28,0.049,297.6
2022-08-03T06:10:03,42.805,6.029,-0.076,0.024,-0.026,101.0,102.0,101.0,13.3,1505.2,329.3,-0.7,1.8,2470.978,13.28,0.079,287.5
2022-08-03T06:13:03,42.805,6.029,-0.062,0.005,-0.044,103.0,101.0,100.0,13.4,1505.2,319.0,-0.8,1.8,2470.942,13.28,0.062,274.6
2022-08-03T06:16:03,42.805,6.029,-0.053,-0.003,-0.051,102.0,102.0,100.0,13.3,1505.2,323.3,-0.8,1.8,2470.976,13.28,0.053,266.8
2022-08-03T06:19:03,42.805,6.029,-0.043,0.008,-0.007,101.0,102.0,101.0,13.4,1505.2,324.9,-0.8,1.8,2470.956,13.28,0.043,280.5
2022-08-03T06:22:03,42.805,6.029,-0.031,-0.011,-0.039,102.0,101.0,102.0,13.4,1505.2,319.1,-0.8,1.8,2470.896,13.28,0.032,250.5
2022-08-03T06:25:03,42.805,6.029,-0.041,0.02,-0.027,103.0,101.0,100.0,13.4,1505.2,330.3,-0.8,1.8,2470.955,13.28,0.045,296.0
2022-08-03T06:28:03,42.805,6.029,-0.04,0.024,-0.026,102.0,102.0,101.0,13.4,1505.2,328.7,-0.8,1.8,2470.902,13.28,0.046,301.0
2022-08-03T06:31:03,42.805,6.029,-0.059,0.006,-0.031,101.0,102.0,101.0,13.4,1505.2,321.8,-0.8,1.8,2470.929,13.28,0.059,275.8
2022-08-03T06:34:03,42.805,6.029,-0.054,-0.008,-0.033,102.0,102.0,101.0,13.4,1505.2,328.9,-0.7,1.8,2470.954,13.28,0.054,261.6
2022-08-03T06:37:03,42.805,6.029,-0.046,0.002,-0.025,102.0,102.0,100.0,13.4,1505.2,326.9,-0.8,1.9,2470.922,13.28,0.046,272.5
2022-08-03T06:40:03,42.805,6.029,-0.053,0.003,-0.044,102.0,103.0,102.0,13.4,1505.2,329.8,-0.8,1.8,2470.945,13.28,0.053,273.2
2022-08-03T06:43:03,42.805,6.029,-0.051,-0.011,-0.01,103.0,102.0,100.0,13.3,1505.2,331.3,-0.8,1.8,2470.908,13.28,0.052,257.8
2022-08-03T06:46:03,42.805,6.029,-0.049,0.004,0.015,103.0,101.0,102.0,13.4,1505.2,327.0,-0.8,1.8,2470.899,13.28,0.049,274.7
2022-08-03T06:49:03,42.805,6.029,-0.069,-0.013,-0.047,102.0,100.0,100.0,13.4,1505.2,330.5,-0.8,1.8,2470.917,13.28,0.07,259.3
2022-08-03T06:52:03,42.805,6.029,-0.043,-0.009,0.005,103.0,103.0,99.0,13.4,1505.2,318.9,-0.8,1.8,2470.945,13.28,0.043,258.2
2022-08-03T06:55:03,42.805,6.029,-0.06,-0.012,-0.028,101.0,102.0,100.0,13.4,1505.2,321.7,-0.8,1.8,2470.924,13.28,0.061,258.7
2022-08-03T06:58:03,42.805,6.029,-0.062,0.023,-0.016,102.0,102.0,100.0,13.4,1505.2,332.6,-0.7,1.8,2470.968,13.28,0.066,290.3
2022-08-03T07:04:03,42.805,6.029,-0.056,0.0,-0.038,102.0,101.0,100.0,13.4,1505.2,320.6,-0.8,1.9,2470.986,13.28,0.056,270.0
2022-08-03T07:07:03,42.805,6.029,-0.062,0.027,-0.049,102.0,102.0,101.0,13.4,1505.2,322.0,-0.8,1.8,2471.004,13.28,0.067,293.5
2022-08-03T07:10:03,42.805,6.029,-0.035,0.015,-0.006,102.0,102.0,101.0,13.4,1505.2,323.4,-0.7,1.8,2470.911,13.28,0.038,293.2
2022-08-03T07:13:03,42.805,6.029,-0.037,0.011,-0.018,102.0,102.0,101.0,13.3,1505.2,327.5,-0.8,1.8,2470.982,13.28,0.038,286.6
2022-08-03T07:16:03,42.805,6.029,-0.012,-0.024,0.008,102.0,102.0,101.0,13.3,1505.2,319.2,-0.8,1.8,2470.974,13.28,0.026,206.6
2022-08-03T07:19:03,42.805,6.029,-0.029,0.005,-0.045,102.0,102.0,101.0,13.4,1505.2,322.0,-0.8,1.8,2470.952,13.28,0.029,279.8
2022-08-03T07:22:03,42.805,6.029,-0.064,0.003,-0.049,101.0,102.0,101.0,13.4,1505.2,321.8,-0.8,1.8,2470.937,13.28,0.064,272.7
2022-08-03T07:25:03,42.805,6.029,-0.067,-0.007,-0.053,102.0,102.0,101.0,13.4,1505.2,322.4,-0.7,1.8,2470.927,13.28,0.067,264.0
2022-08-03T07:28:03,42.805,6.029,-0.06,-0.014,-0.014,102.0,101.0,100.0,13.4,1505.2,323.1,-0.8,1.8,2470.945,13.28,0.061,256.9
2022-08-03T07:31:03,42.805,6.029,-0.041,-0.008,-0.006,102.0,103.0,100.0,13.4,1505.2,325.7,-0.7,1.8,2471.001,13.28,0.041,259.0
2022-08-03T07:34:03,42.805,6.029,-0.074,-0.004,-0.017,101.0,103.0,100.0,13.4,1505.2,325.3,-0.8,1.8,2470.954,13.28,0.074,266.9
2022-08-03T07:37:03,42.805,6.029,-0.034,-0.006,-0.007,102.0,101.0,101.0,13.4,1505.2,326.4,-0.8,1.8,2470.939,13.28,0.034,260.0
2022-08-03T07:40:03,42.805,6.029,-0.044,-0.017,-0.021,102.0,102.0,101.0,13.4,1505.2,318.2,-0.7,1.8,2470.936,13.28,0.047,248.9
2022-08-03T07:43:03,42.805,6.029,-0.061,0.014,-0.033,103.0,102.0,100.0,13.4,1505.2,331.0,-0.7,1.8,2470.979,13.28,0.062,282.9
2022-08-03T07:46:03,42.805,6.029,-0.055,0.0,-0.06,102.0,102.0,100.0,13.4,1505.2,329.6,-0.7,1.8,2470.981,13.28,0.055,270.0
2022-08-03T07:49:03,42.805,6.029,-0.051,0.012,0.002,101.0,102.0,101.0,13.4,1505.2,329.4,-0.8,1.8,2470.951,13.28,0.052,283.2
2022-08-03T07:52:03,42.805,6.029,-0.058,-0.012,-0.035,102.0,101.0,101.0,13.3,1505.2,328.1,-0.7,1.8,2470.938,13.28,0.059,258.3
2022-08-03T07:55:03,42.805,6.029,-0.047,-0.02,-0.045,102.0,102.0,101.0,13.4,1505.2,329.7,-0.7,1.8,2470.946,13.29,0.051,247.0
2022-08-03T07:58:03,42.805,6.029,-0.029,-0.006,-0.004,101.0,102.0,101.0,13.4,1505.2,323.8,-0.7,1.8,2470.989,13.28,0.029,258.3
2022-08-03T08:04:03,42.805,6.029,-0.046,-0.015,-0.018,102.0,102.0,101.0,13.4,1505.2,320.3,-0.8,1.8,2471.025,13.28,0.048,251.9
2022-08-03T08:07:03,42.805,6.029,-0.053,0.011,-0.019,104.0,100.0,100.0,13.4,1505.2,330.1,-0.7,1.8,2470.987,13.28,0.054,281.7
2022-08-03T08:10:03,42.805,6.029,-0.029,0.005,-0.021,101.0,102.0,101.0,13.4,1505.2,321.6,-0.8,1.8,2471.009,13.28,0.029,279.8
2022-08-03T08:13:03,42.805,6.029,-0.025,-0.001,-0.025,102.0,102.0,101.0,13.4,1505.2,322.3,-0.8,1.8,2470.961,13.28,0.025,267.7
2022-08-03T08:16:03,42.805,6.029,-0.049,0.0,-0.011,102.0,103.0,100.0,13.4,1505.2,326.4,-0.8,1.8,2470.977,13.28,0.049,270.0
2022-08-03T08:19:03,42.805,6.029,-0.063,0.014,-0.017,103.0,101.0,102.0,13.4,1505.2,325.0,-0.8,1.8,2470.994,13.28,0.064,282.5
2022-08-03T08:22:03,42.805,6.029,-0.044,0.014,-0.02,100.0,103.0,100.0,13.4,1505.2,332.9,-0.7,1.8,2470.969,13.28,0.046,287.6
2022-08-03T08:25:03,42.805,6.029,-0.054,-0.009,-0.047,102.0,103.0,101.0,13.3,1505.2,323.7,-0.8,1.8,2470.986,13.28,0.054,260.5
2022-08-03T08:28:03,42.805,6.029,-0.052,0.002,-0.018,102.0,101.0,101.0,13.4,1505.2,318.7,-0.7,1.8,2470.979,13.28,0.052,272.2
2022-08-03T08:31:03,42.805,6.029,-0.048,0.011,-0.021,102.0,103.0,99.0,13.4,1505.2,330.2,-0.7,1.8,2471.002,13.28,0.049,282.9
2022-08-03T08:34:03,42.805,6.029,-0.062,0.011,-0.03,103.0,101.0,100.0,13.4,1505.2,329.0,-0.7,1.8,2470.971,13.28,0.062,280.1
2022-08-03T08:37:03,42.805,6.029,-0.028,0.001,-0.008,103.0,101.0,101.0,13.3,1505.2,333.1,-0.7,1.8,2470.923,13.28,0.028,272.0
2022-08-03T08:40:03,42.805,6.029,-0.063,-0.009,-0.011,103.0,102.0,100.0,13.3,1505.2,327.7,-0.7,1.8,2471.021,13.28,0.063,261.9
2022-08-03T08:43:03,42.805,6.029,-0.047,-0.003,-0.007,102.0,102.0,101.0,13.3,1505.2,324.5,-0.8,1.8,2470.974,13.28,0.047,266.4
2022-08-03T08:46:03,42.805,6.029,-0.023,-0.004,-0.04,102.0,102.0,101.0,13.4,1505.2,322.0,-0.8,1.8,2470.976,13.28,0.023,260.1
2022-08-03T08:49:03,42.805,6.029,-0.038,0.01,-0.036,102.0,101.0,100.0,13.4,1505.2,328.8,-0.8,1.8,2471.013,13.28,0.039,284.7
2022-08-03T08:52:03,42.805,6.029,-0.044,0.0,-0.031,102.0,100.0,101.0,13.3,1505.2,329.6,-0.8,1.8,2470.94,13.28,0.044,270.0
2022-08-03T08:55:03,42.805,6.029,-0.034,0.027,-0.023,102.0,101.0,101.0,13.4,1505.2,321.2,-0.7,1.8,2470.969,13.28,0.043,308.5
2022-08-03T08:58:03,42.805,6.029,-0.017,-0.005,-0.015,103.0,102.0,100.0,13.3,1505.2,324.3,-0.8,1.8,2470.991,13.28,0.017,253.6
2022-08-03T09:04:03,42.805,6.029,-0.038,-0.013,-0.045,102.0,102.0,100.0,13.4,1505.2,322.3,-0.8,1.8,2471.025,13.28,0.04,251.1
2022-08-03T09:07:03,42.805,6.029,-0.046,0.002,-0.024,101.0,101.0,101.0,13.4,1505.2,323.0,-0.7,1.8,2471.037,13.28,0.046,272.5
2022-08-03T09:10:03,42.805,6.029,-0.037,0.004,-0.047,102.0,101.0,100.0,13.3,1505.2,318.5,-0.8,1.8,2471.025,13.28,0.037,276.2
2022-08-03T09:13:03,42.805,6.029,-0.056,-0.002,-0.005,102.0,102.0,100.0,13.4,1505.2,320.3,-0.8,1.8,2470.982,13.28,0.056,268.0
2022-08-03T09:16:03,42.805,6.029,-0.04,0.009,-0.002,102.0,101.0,101.0,13.4,1505.2,320.2,-0.8,1.8,2471.015,13.28,0.041,282.7
2022-08-03T09:19:03,42.805,6.029,-0.032,-0.002,-0.004,102.0,102.0,100.0,13.4,1505.2,325.6,-0.8,1.8,2471.029,13.28,0.032,266.4
2022-08-03T09:22:03,42.805,6.029,-0.028,-0.017,-0.03,102.0,101.0,101.0,13.4,1505.2,322.5,-0.8,1.8,2471.018,13.28,0.032,238.7
2022-08-03T09:25:03,42.805,6.029,-0.044,0.006,-0.027,102.0,104.0,100.0,13.4,1505.2,324.8,-0.7,1.8,2471.049,13.28,0.044,277.8
2022-08-03T09:28:03,42.805,6.029,-0.037,-0.016,-0.031,102.0,101.0,101.0,13.4,1505.2,321.4,-0.8,1.8,2471.009,13.28,0.04,246.6
2022-08-03T09:31:03,42.805,6.029,-0.031,-0.017,-0.044,103.0,102.0,101.0,13.4,1505.2,327.3,-0.8,1.9,2471.022,13.28,0.035,241.3
2022-08-03T09:34:03,42.805,6.029,-0.04,-0.019,-0.047,102.0,103.0,100.0,13.4,1505.2,324.2,-0.7,1.8,2471.011,13.28,0.044,244.6
2022-08-03T09:37:03,42.805,6.029,-0.035,0.001,0.011,103.0,103.0,100.0,13.4,1505.2,332.1,-0.8,1.8,2471.04,13.28,0.035,271.6
2022-08-03T09:40:03,42.805,6.029,-0.067,0.008,-0.015,102.0,101.0,100.0,13.4,1505.2,320.8,-0.7,1.9,2471.022,13.28,0.067,276.8
2022-08-03T09:43:03,42.805,6.029,-0.033,0.008,-0.018,102.0,103.0,100.0,13.4,1505.2,332.7,-0.8,1.8,2471.027,13.28,0.033,283.6
2022-08-03T09:46:03,42.805,6.029,-0.053,0.004,-0.048,102.0,102.0,102.0,13.3,1505.2,328.9,-0.8,1.8,2471.016,13.28,0.053,274.3
2022-08-03T09:49:03,42.805,6.029,-0.018,-0.009,-0.03,102.0,101.0,101.0,13.4,1505.2,330.2,-0.8,1.8,2471.003,13.28,0.02,243.4
2022-08-03T09:52:03,42.805,6.029,-0.049,-0.013,-0.007,104.0,100.0,100.0,13.4,1505.2,318.2,-0.8,1.8,2471.009,13.28,0.05,255.1